Weather History for Milton, FL

Change the Weather History Date:

Monday, November 28, 2011

  Actual Average (KNSE) Record (KNSE)
Temperature  
Mean Temperature 44 °F -  
Max Temperature 50 °F 65 °F 80 °F (2005)
Min Temperature 37 °F 45 °F 26 °F (2013)
Degree Days  
Heating Degree Days 22    
Moisture  
Dew Point 40 °F    
Average Humidity 82    
Maximum Humidity 100    
Minimum Humidity 61    
Precipitation  
Precipitation 0.01 in - - ()
Sea Level Pressure  
Sea Level Pressure 29.91 in    
Wind  
Wind Speed 7 mph (WNW)    
Max Wind Speed 12 mph    
Max Gust Speed 21 mph    
Visibility 10 miles    
Events Rain    
Averages and records for this station are not official NWS values.
T = Trace of Precipitation, MM = Missing Value Source: NWS Daily Summary

Daily Weather History Graph

Daily Weather History Graph

Search for Another Location

Airport:

Trip Planner

Search our weather history database for the weather conditions in past years. The results will help you decide how hot, cold, wet, or windy it might be!

Date:

Astronomy

Nov. 28, 2011 Rise Set
Actual Time 6:25 AM CST 4:46 PM CST
Civil Twilight 5:59 AM CST 5:12 PM CST
Nautical Twilight 5:29 AM CST 5:42 PM CST
Astronomical Twilight 5:00 AM CST 6:11 PM CST
Moon 9:36 AM CST (11/28) 8:29 PM CST (11/28)
Length of Visible Light 11h 13m
Length of Day
10h 21m
Waxing Crescent, 16% of the Moon is Illuminated
Nov 28
Waxing Crescent
Dec 2
First Quarter
Dec 10
Full
Dec 17
Last Quarter
Dec 24
New

Hourly Weather History & Observations

Time (CST) Temp. Windchill Dew Point Humidity Pressure Visibility Wind Dir Wind Speed Gust Speed Precip Events Conditions
12:56 AM 48.0 °F - 46.0 °F 93% 29.87 in 10.0 mi NW 9.2 mph - 0.01 in   Overcast
1:06 AM 48.2 °F - 46.4 °F 93% 29.92 in 10.0 mi WNW 5.8 mph - 0.00 in Rain Light Rain
1:27 AM 48.2 °F - 46.4 °F 93% 29.91 in 10.0 mi WNW 10.4 mph 17.3 mph 0.00 in   Overcast
1:56 AM 46.9 °F - 45.0 °F 93% 29.87 in 4.0 mi WNW 11.5 mph 20.7 mph 0.00 in   Overcast
2:14 AM 46.4 °F 42.9 °F 44.6 °F 93% 29.91 in 10.0 mi NW 6.9 mph - 0.00 in Rain Light Rain
2:34 AM 46.4 °F 42.9 °F 44.6 °F 93% 29.90 in 10.0 mi WNW 6.9 mph - 0.00 in   Overcast
2:56 AM 46.0 °F 41.9 °F 44.1 °F 93% 29.87 in 9.0 mi WNW 8.1 mph - 0.00 in   Overcast
3:56 AM 45.0 °F 41.8 °F 43.0 °F 93% 29.86 in 10.0 mi WNW 5.8 mph - N/A   Overcast
4:04 AM 44.6 °F 40.2 °F 44.6 °F 100% 29.90 in 10.0 mi WNW 8.1 mph - N/A   Overcast
4:17 AM 44.6 °F 39.7 °F 42.8 °F 93% 29.90 in 10.0 mi WNW 9.2 mph - N/A   Overcast
4:32 AM 44.6 °F 40.7 °F 42.8 °F 93% 29.91 in 10.0 mi WNW 6.9 mph - N/A   Overcast
4:56 AM 45.0 °F 41.2 °F 42.1 °F 90% 29.89 in 10.0 mi Variable 6.9 mph - N/A   Overcast
5:14 AM 44.6 °F 40.2 °F 42.8 °F 93% 29.92 in 9.0 mi West 8.1 mph 16.1 mph N/A   Overcast
5:42 AM 44.6 °F 40.7 °F 42.8 °F 93% 29.93 in 10.0 mi WNW 6.9 mph - N/A   Overcast
5:56 AM 45.0 °F 40.6 °F 42.1 °F 90% 29.90 in 10.0 mi WNW 8.1 mph - N/A   Overcast
6:44 AM 44.6 °F 40.7 °F 39.2 °F 81% 29.94 in 10.0 mi WNW 6.9 mph - N/A   Mostly Cloudy
6:56 AM 44.1 °F 40.8 °F 39.9 °F 85% 29.91 in 10.0 mi WNW 5.8 mph - N/A   Mostly Cloudy
7:30 AM 44.6 °F 42.2 °F 41.0 °F 87% 29.95 in 10.0 mi Variable 4.6 mph - N/A   Overcast
7:56 AM 45.0 °F 43.5 °F 41.0 °F 86% 29.92 in 10.0 mi Variable 3.5 mph - N/A   Overcast
8:08 AM 44.6 °F 41.4 °F 39.2 °F 81% 29.95 in 10.0 mi WNW 5.8 mph - N/A   Overcast
8:30 AM 46.4 °F 43.5 °F 41.0 °F 81% 29.96 in 10.0 mi Variable 5.8 mph - N/A   Mostly Cloudy
8:56 AM 46.9 °F - 39.9 °F 77% 29.93 in 10.0 mi WNW 8.1 mph 16.1 mph N/A   Overcast
9:56 AM 46.0 °F 40.6 °F 39.0 °F 76% 29.93 in 10.0 mi NW 11.5 mph 18.4 mph N/A   Overcast
10:56 AM 48.9 °F - 39.0 °F 69% 29.91 in 10.0 mi West 10.4 mph 17.3 mph N/A   Overcast
11:23 AM 50.0 °F - 37.4 °F 62% 29.94 in 10.0 mi West 9.2 mph 20.7 mph N/A   Mostly Cloudy
11:56 AM 48.9 °F - 37.9 °F 66% 29.90 in 10.0 mi West 9.2 mph - N/A   Overcast
12:24 PM 48.2 °F - 37.4 °F 66% 29.93 in 10.0 mi West 9.2 mph - N/A   Overcast
12:56 PM 48.0 °F - 37.9 °F 68% 29.89 in 10.0 mi Variable 6.9 mph - N/A   Overcast
1:07 PM 48.2 °F - 37.4 °F 66% 29.91 in 10.0 mi Variable 5.8 mph 18.4 mph N/A   Overcast
1:15 PM 50.0 °F - 37.4 °F 62% 29.91 in 10.0 mi Variable 5.8 mph - N/A   Mostly Cloudy
1:56 PM 50.0 °F - 37.0 °F 61% 29.87 in 10.0 mi West 10.4 mph - N/A   Overcast
2:56 PM 50.0 °F - 37.9 °F 63% 29.87 in 10.0 mi WNW 8.1 mph - N/A   Overcast
3:56 PM 48.9 °F - 37.0 °F 64% 29.88 in 10.0 mi Variable 3.5 mph - N/A   Overcast
4:56 PM 46.9 °F - 37.9 °F 71% 29.89 in 10.0 mi WNW 5.8 mph - N/A   Overcast
5:56 PM 43.0 °F - 37.0 °F 80% 29.90 in 10.0 mi Calm Calm - N/A   Clear
6:56 PM 41.0 °F - 37.0 °F 86% 29.91 in 10.0 mi Calm Calm - N/A   Clear
7:56 PM 39.0 °F - 36.0 °F 89% 29.93 in 10.0 mi Calm Calm - N/A   Partly Cloudy
8:56 PM 37.9 °F - 35.1 °F 89% 29.94 in 10.0 mi Calm Calm - N/A   Clear
9:56 PM 37.9 °F - 35.1 °F 89% 29.94 in 10.0 mi Calm Calm - N/A   Clear
10:56 PM 39.0 °F 34.8 °F 36.0 °F 89% 29.96 in 10.0 mi WNW 5.8 mph - N/A   Overcast
11:56 PM 39.9 °F 37.8 °F 37.0 °F 89% 29.95 in 10.0 mi West 3.5 mph - N/A   Overcast